Regional Weather Roundup
Issued by NWS Memphis, TN

Home | Current Version | Previous Version | Text Only | Print | Product List | Glossary On
Versions: 1 2 3 4 5 6 7 8 9 10 11 12 13 14 15 16 17 18 19 20 21 22 23 24 25 26 27 28 29 30 31 32 33 34 35 36 37 38 39 40 41 42 43 44 45 46 47 48 49 50
000
ASUS44 KMEG 141410
RWRMEG
MEMPHIS CWA HOURLY WEATHER ROUNDUP
NATIONAL WEATHER SERVICE MEMPHIS TN
900 AM CDT MON JUL 14 2014

...WEST TENNESSEE...

CITY           SKY/WX    TMP DP  RH WIND       PRES   REMARKS
MEMPHIS INTL   MOSUNNY   86  74  67 SW8       29.99S HX  94
NWS MEMPHIS      N/A     83 N/A N/A MISG        N/A
JACKSON        PTSUNNY   80  72  76 CALM      30.01F
LEXINGTON      MOSUNNY   81  72  74 CALM      30.01F
SAVANNAH       MOSUNNY   82  77  85 W7        30.02F HX  90
DYERSBURG      PTSUNNY   73  64  73 CALM      30.00F
UNION CITY     PTSUNNY   70  70 100 SE3       29.96F
PARIS          MOSUNNY   70  68  94 SW3       29.98F


...EASTERN ARKANSAS...

CITY           SKY/WX    TMP DP  RH WIND       PRES   REMARKS
JONESBORO      PTSUNNY   80  75  84 S5        29.95F
WEST MEMPHIS   SUNNY     83  76  79 SW7       29.97S HX  91
BATESVILLE     MOSUNNY   84  75  74 SW8       29.95S HX  92
NEWPORT        MOSUNNY   82  77  85 S10G20    29.96F HX  90
WALNUT RIDGE   MOSUNNY   81  73  78 NE6       29.95S
BLYTHEVILLE    PTSUNNY   77  75  93 SE7       29.97F
NW BLYTHEVILLE PTSUNNY   77  73  88 SE8       29.97F
SEARCY         MOSUNNY   83  75  76 W6        29.97F HX  90
PINE BLUFF     SUNNY     83  73  72 SW9       29.99R
MONTICELLO     SUNNY     84  74  71 SW5       30.01R HX  91


...NORTH MISSISSIPPI...

CITY           SKY/WX    TMP DP  RH WIND       PRES   REMARKS
TUPELO         SUNNY     84  74  71 W6        30.03R HX  91
OLIVE BRANCH   MOSUNNY   82  81  94 SW9       30.01R HX  95
CLARKSDALE     SUNNY     84  77  79 S6        30.01F HX  94
CORINTH        SUNNY     82  73  74 W8G16     30.02S
GRENADA        SUNNY     82  73  74 W6        30.03S
GREENWOOD      SUNNY     82  75  79 SW7       30.03R
COLUMBUS       SUNNY     83  74  74 SW8       30.04S HX  90
STARKVILLE     FAIR      81  73  78 CALM      30.04S


...SOUTHEAST MISSOURI...

CITY           SKY/WX    TMP DP  RH WIND       PRES   REMARKS
DONIPHAN         N/A     74  71  89 S1          N/A
WEST PLAINS    CLOUDY    73  70  90 NW5       30.02R
POPLAR BLUFF   PTSUNNY   75  71  87 CALM      29.95S
CAPE GIRARDEAU PTSUNNY   77  73  87 SW8       29.95S


...NORTHWEST ALABAMA...

CITY           SKY/WX    TMP DP  RH WIND       PRES   REMARKS
MUSCLE SHOALS  SUNNY     85  73  67 W7        30.05R HX  91


...MIDDLE TENNESSEE...

CITY           SKY/WX    TMP DP  RH WIND       PRES   REMARKS
NASHVILLE      PTSUNNY   84  72  67 SW9G18    30.02R
CLARKSVILLE    LGT RAIN  76  72  87 SW7       29.98F
DICKSON        PTSUNNY   81  72  74 W10       30.02R
COLUMBIA       SUNNY     84  75  74 SW9       30.02S HX  92
LEWISBURG      MOSUNNY   83  72  69 SW7       30.03S


...WESTERN KENTUCKY...

CITY           SKY/WX    TMP DP  RH WIND       PRES   REMARKS
PADUCAH        PTSUNNY   76  70  82 SW5       29.95S
FORT CAMPBELL  DRIZZLE   75  73  94 W16       29.97F


...CENTRAL ARKANSAS...

CITY           SKY/WX    TMP DP  RH WIND       PRES   REMARKS
LITTLE ROCK    MOSUNNY   84  72  67 W8        29.98R


SKY/WX REPORTED AS FAIR MEANS FEW OR NO CLOUDS BELOW
12 THOUSAND FEET.




USA.gov is the U.S. government's official web portal to all federal, state and local government web resources and services.